When you browse on this site, cookies collect data to enhance your experience and personalize the content and advertising you see.
Visit our Privacy Policy to learn more. By continuing to use the site, you agree to this use of cookies and data.
  • In Hungary
  • List of Countries
  • For 7 days
  • Water Temperature
  • Satellite Maps
  • Weather Map
  • News
  • Weather Widgets
  • user-avatar
    Login

    Hourly Weather Augustowka

    Today, 20 May, Monday

    Time Temperature Precipitation Wind Pressure Humidity
    00:00 +17°C° 0 mm 4 mps 742 mmHg 95%
    01:00 +17°C° 0 mm 4 mps 742 mmHg 96%
    02:00 +15°C° 0 mm 4 mps 742 mmHg 96%
    03:00 +17°C° 0.6 mm 4 mps 741 mmHg 96%
    04:00 +17°C° 0.6 mm 4 mps 741 mmHg 97%
    05:00 +16°C° 0.6 mm 5 mps 741 mmHg 97%
    06:00 +17°C° 0.4 mm 5 mps 741 mmHg 95%
    07:00 +17°C° 0.4 mm 6 mps 741 mmHg 94%
    08:00 +18°C° 0 mm 7 mps 741 mmHg 92%
    09:00 +20°C° 0.1 mm 6 mps 741 mmHg 89%
    10:00 +21°C° 0.1 mm 6 mps 741 mmHg 87%
    11:00 +22°C° 0.1 mm 5 mps 741 mmHg 84%
    12:00 +23°C° 0.8 mm 5 mps 741 mmHg 80%
    13:00 +24°C° 0.8 mm 6 mps 741 mmHg 76%
    14:00 +26°C° 0.8 mm 6 mps 741 mmHg 72%
    15:00 +25°C° 2.4 mm 5 mps 741 mmHg 76%
    16:00 +23°C° 2.4 mm 4 mps 741 mmHg 81%
    17:00 +21°C° 2.4 mm 4 mps 741 mmHg 86%
    18:00 +20°C° 0.7 mm 3 mps 740 mmHg 88%
    19:00 +19°C° 0.7 mm 3 mps 740 mmHg 90%
    20:00 +18°C° 0.7 mm 3 mps 740 mmHg 92%
    21:00 +18°C° 0 mm 3 mps 740 mmHg 93%
    22:00 +17°C° 0 mm 3 mps 740 mmHg 94%
    23:00 +17°C° 0 mm 4 mps 740 mmHg 95%

    Tomorrow, 21 May, Tuesday

    Time Temperature Precipitation Wind Pressure Humidity
    00:00 +17°C° 0 mm 3 mps 740 mmHg 95%
    01:00 +16°C° 0 mm 3 mps 740 mmHg 96%
    02:00 +16°C° 0 mm 2 mps 740 mmHg 96%
    03:00 +16°C° 0.3 mm 2 mps 740 mmHg 96%
    04:00 +16°C° 0.3 mm 3 mps 739 mmHg 97%
    05:00 +14°C° 0.3 mm 3 mps 739 mmHg 97%
    06:00 +16°C° 0 mm 3 mps 739 mmHg 95%
    07:00 +17°C° 0 mm 4 mps 739 mmHg 92%
    08:00 +18°C° 0 mm 4 mps 739 mmHg 90%
    09:00 +19°C° 0.3 mm 5 mps 739 mmHg 87%
    10:00 +19°C° 0.3 mm 5 mps 739 mmHg 85%
    11:00 +20°C° 0.3 mm 6 mps 739 mmHg 82%
    12:00 +20°C° 0.7 mm 6 mps 739 mmHg 82%
    13:00 +20°C° 0.7 mm 7 mps 739 mmHg 81%
    14:00 +20°C° 0.7 mm 8 mps 739 mmHg 81%
    15:00 +18°C° 0.2 mm 7 mps 739 mmHg 80%
    16:00 +18°C° 0.2 mm 7 mps 739 mmHg 79%
    17:00 +18°C° 0.2 mm 7 mps 738 mmHg 78%
    18:00 +16°C° 0 mm 7 mps 738 mmHg 80%
    19:00 +15°C° 0 mm 6 mps 739 mmHg 83%
    20:00 +14°C° 0 mm 6 mps 739 mmHg 86%
    21:00 +14°C° 0.2 mm 6 mps 739 mmHg 86%
    22:00 +14°C° 0.2 mm 7 mps 739 mmHg 86%
    23:00 +12°C° 0.2 mm 7 mps 739 mmHg 86%

    Day after tomorrow, 22 May, Wednesday

    Time Temperature Precipitation Wind Pressure Humidity
    00:00 +14°C° 0.3 mm 7 mps 739 mmHg 87%
    01:00 +14°C° 0.3 mm 7 mps 739 mmHg 88%
    02:00 +14°C° 0.3 mm 7 mps 739 mmHg 89%
    03:00 +14°C° 0.1 mm 6 mps 739 mmHg 90%
    04:00 +13°C° 0.1 mm 6 mps 739 mmHg 91%
    05:00 +13°C° 0.1 mm 5 mps 739 mmHg 92%
    06:00 +14°C° 0 mm 5 mps 740 mmHg 90%
    07:00 +14°C° 0 mm 5 mps 740 mmHg 88%
    08:00 +15°C° 0 mm 5 mps 740 mmHg 86%
    09:00 +16°C° 0.3 mm 5 mps 740 mmHg 83%
    10:00 +17°C° 0.3 mm 5 mps 741 mmHg 80%
    11:00 +19°C° 0.3 mm 5 mps 741 mmHg 76%
    12:00 +19°C° 0.7 mm 6 mps 741 mmHg 77%
    13:00 +19°C° 0.7 mm 6 mps 741 mmHg 77%
    14:00 +19°C° 0.7 mm 6 mps 741 mmHg 78%
    15:00 +17°C° 0.1 mm 6 mps 741 mmHg 78%
    16:00 +17°C° 0.1 mm 6 mps 741 mmHg 78%
    17:00 +17°C° 0.1 mm 6 mps 740 mmHg 79%
    18:00 +16°C° 0 mm 5 mps 741 mmHg 81%
    19:00 +16°C° 0 mm 5 mps 741 mmHg 83%
    20:00 +15°C° 0 mm 4 mps 741 mmHg 86%
    21:00 +14°C° 0 mm 4 mps 741 mmHg 89%
    22:00 +14°C° 0 mm 4 mps 741 mmHg 91%
    23:00 +13°C° 0 mm 5 mps 741 mmHg 94%

    23 May, Thursday

    Time Temperature Precipitation Wind Pressure Humidity
    00:00 +13°C° 0 mm 4 mps 741 mmHg 95%
    01:00 +13°C° 0 mm 4 mps 741 mmHg 95%
    02:00 +13°C° 0 mm 4 mps 741 mmHg 96%
    03:00 +13°C° 0.1 mm 4 mps 741 mmHg 95%
    04:00 +13°C° 0.1 mm 4 mps 741 mmHg 93%
    05:00 +14°C° 0.1 mm 4 mps 741 mmHg 92%
    06:00 +14°C° 0.1 mm 4 mps 742 mmHg 92%
    07:00 +14°C° 0.1 mm 4 mps 742 mmHg 92%
    08:00 +14°C° 0.1 mm 4 mps 742 mmHg 92%
    09:00 +16°C° 0.1 mm 3 mps 742 mmHg 90%
    10:00 +16°C° 0.1 mm 3 mps 743 mmHg 89%
    11:00 +17°C° 0.1 mm 3 mps 743 mmHg 87%
    12:00 +16°C° 0.9 mm 5 mps 743 mmHg 87%
    13:00 +16°C° 0.9 mm 6 mps 743 mmHg 87%
    14:00 +16°C° 0.9 mm 7 mps 744 mmHg 87%
    15:00 +15°C° 0.2 mm 7 mps 744 mmHg 88%
    16:00 +14°C° 0.2 mm 7 mps 744 mmHg 89%
    17:00 +12°C° 0.2 mm 8 mps 744 mmHg 90%
    18:00 +12°C° 0.2 mm 7 mps 744 mmHg 91%
    19:00 +11°C° 0.2 mm 6 mps 744 mmHg 92%
    20:00 +10°C° 0.2 mm 6 mps 745 mmHg 93%
    21:00 +10°C° 0.2 mm 6 mps 745 mmHg 93%
    22:00 +10°C° 0.2 mm 5 mps 745 mmHg 93%
    23:00 +10°C° 0.2 mm 5 mps 745 mmHg 94%

    24 May, Friday

    Time Temperature Precipitation Wind Pressure Humidity
    00:00 +9°C° 0.3 mm 5 mps 745 mmHg 93%
    01:00 +9°C° 0.3 mm 5 mps 745 mmHg 92%
    02:00 +8°C° 0.3 mm 5 mps 745 mmHg 92%
    03:00 +8°C° 0.2 mm 5 mps 745 mmHg 92%
    04:00 +8°C° 0.2 mm 4 mps 745 mmHg 92%
    05:00 +8°C° 0.2 mm 4 mps 745 mmHg 92%
    06:00 +8°C° 0.3 mm 4 mps 745 mmHg 92%
    07:00 +8°C° 0.3 mm 4 mps 745 mmHg 92%
    08:00 +8°C° 0.3 mm 4 mps 745 mmHg 92%
    09:00 +10°C° 0.2 mm 4 mps 745 mmHg 90%
    10:00 +10°C° 0.2 mm 4 mps 744 mmHg 88%
    11:00 +11°C° 0.2 mm 3 mps 744 mmHg 86%
    12:00 +12°C° 0.1 mm 3 mps 744 mmHg 82%
    13:00 +14°C° 0.1 mm 3 mps 744 mmHg 78%
    14:00 +16°C° 0.1 mm 3 mps 744 mmHg 73%
    15:00 +16°C° 0 mm 3 mps 743 mmHg 73%
    16:00 +17°C° 0 mm 2 mps 743 mmHg 74%
    17:00 +17°C° 0 mm 2 mps 743 mmHg 74%
    18:00 +16°C° 0 mm 2 mps 742 mmHg 79%
    19:00 +15°C° 0 mm 2 mps 742 mmHg 83%
    20:00 +14°C° 0 mm 1 mps 742 mmHg 88%
    21:00 +13°C° 0 mm 1 mps 742 mmHg 89%
    22:00 +12°C° 0 mm 1 mps 742 mmHg 90%
    23:00 +10°C° 0 mm 0 mps 742 mmHg 91%

    25 May, Saturday

    Time Temperature Precipitation Wind Pressure Humidity
    00:00 +11°C° 0 mm 1 mps 742 mmHg 91%
    01:00 +10°C° 0 mm 1 mps 742 mmHg 91%
    02:00 +10°C° 0 mm 1 mps 742 mmHg 91%
    03:00 +10°C° 0 mm 1 mps 742 mmHg 91%
    04:00 +10°C° 0 mm 1 mps 742 mmHg 91%
    05:00 +10°C° 0 mm 1 mps 741 mmHg 91%
    06:00 +12°C° 0 mm 1 mps 742 mmHg 87%
    07:00 +13°C° 0 mm 1 mps 742 mmHg 82%
    08:00 +15°C° 0 mm 1 mps 742 mmHg 77%
    09:00 +16°C° 0 mm 1 mps 742 mmHg 73%
    10:00 +18°C° 0 mm 1 mps 742 mmHg 70%
    11:00 +19°C° 0 mm 2 mps 742 mmHg 66%
    12:00 +19°C° 0.3 mm 2 mps 741 mmHg 66%
    13:00 +19°C° 0.3 mm 2 mps 741 mmHg 66%
    14:00 +20°C° 0.3 mm 2 mps 741 mmHg 66%
    15:00 +20°C° 0.1 mm 2 mps 741 mmHg 64%
    16:00 +20°C° 0.1 mm 2 mps 741 mmHg 63%
    17:00 +21°C° 0.1 mm 2 mps 741 mmHg 61%
    18:00 +20°C° 0.1 mm 1 mps 741 mmHg 66%
    19:00 +19°C° 0.1 mm 1 mps 741 mmHg 71%
    20:00 +15°C° 0.1 mm 0 mps 741 mmHg 75%
    21:00 +15°C° 0 mm 0 mps 741 mmHg 78%
    22:00 +14°C° 0 mm 0 mps 741 mmHg 80%
    23:00 +13°C° 0 mm 0 mps 741 mmHg 82%
    Show more